| time (UTC) | temp F | wind direction | speed MPH | gust MPH | rain 1hr in | rain 24hr in | rain mn in | humidity % | barometer mb |
| 20260508002328 | 58 | 216 | 0.0 | 0.0 | 0.00 | 0.28 | 0.00 | 5 | 1013.6 |
| 20260508001404 | 59 | 216 | 0.0 | 1.0 | 0.00 | 0.28 | 0.00 | 8 | 1013.7 |
| 20260508000346 | 59 | 216 | 0.0 | 2.0 | 0.00 | 0.28 | 0.00 | 10 | 1013.9 |
| 20260507235338 | 59 | 181 | 1.0 | 2.0 | 0.00 | 0.28 | 0.00 | 14 | 1014.0 |
| 20260507234331 | 59 | 215 | 0.0 | 1.0 | 0.00 | 0.28 | 0.00 | 17 | 1014.1 |
| 20260507233335 | 59 | 215 | 0.0 | 2.0 | 0.00 | 0.28 | 0.00 | 21 | 1014.1 |
| 20260507232330 | 59 | 215 | 1.0 | 3.0 | 0.00 | 0.28 | 0.00 | 25 | 1014.2 |
| 20260507231327 | 60 | 215 | 1.0 | 3.0 | 0.00 | 0.28 | 0.00 | 28 | 1014.3 |
| 20260507230330 | 60 | 205 | 1.0 | 2.0 | 0.00 | 0.28 | 0.00 | 31 | 1014.3 |
| 20260507225332 | 60 | 107 | 0.0 | 2.0 | 0.00 | 0.28 | 0.00 | 33 | 1014.3 |
| 20260507224337 | 61 | 107 | 0.0 | 2.0 | 0.00 | 0.28 | 0.00 | 32 | 1014.3 |
| 20260507223338 | 61 | 107 | 1.0 | 2.0 | 0.00 | 0.28 | 0.00 | 33 | 1014.3 |
| 20260507222355 | 62 | 107 | 0.0 | 0.0 | 0.00 | 0.28 | 0.00 | 32 | 1014.2 |
| 20260507221329 | 62 | 107 | 0.0 | 0.0 | 0.00 | 0.28 | 0.00 | 35 | 1014.2 |
| 20260507220340 | 62 | 107 | 0.0 | 0.0 | 0.00 | 0.28 | 0.00 | 35 | 1014.2 |
| 20260507215342 | 62 | 107 | 0.0 | 2.0 | 0.00 | 0.28 | 0.06 | 36 | 1014.2 |
| 20260507214344 | 62 | 107 | 1.0 | 3.0 | 0.00 | 0.28 | 0.06 | 36 | 1014.1 |
| 20260507213346 | 62 | 106 | 0.0 | 0.0 | 0.00 | 0.28 | 0.06 | 35 | 1014.2 |
| 20260507212337 | 62 | 53 | 0.0 | 0.0 | 0.00 | 0.28 | 0.06 | 35 | 1014.3 |
| 20260507211325 | 62 | 136 | 0.0 | 0.0 | 0.00 | 0.28 | 0.06 | 36 | 1014.3 |
| 20260507210331 | 62 | 128 | 1.0 | 5.0 | 0.00 | 0.28 | 0.06 | 36 | 1014.2 |
| 20260507205323 | 63 | 126 | 1.0 | 2.0 | 0.00 | 0.28 | 0.06 | 36 | 1014.1 |
| 20260507204341 | 63 | 134 | 0.0 | 4.0 | 0.00 | 0.28 | 0.06 | 37 | 1014.2 |
| 20260507203356 | 63 | 157 | 2.0 | 5.0 | 0.00 | 0.28 | 0.06 | 36 | 1014.2 |
| 20260507202340 | 63 | 143 | 2.0 | 5.0 | 0.00 | 0.28 | 0.06 | 34 | 1014.1 |
| 20260507201338 | 63 | 108 | 2.0 | 5.0 | 0.00 | 0.28 | 0.06 | 34 | 1014.1 |
| 20260507200406 | 63 | 161 | 2.0 | 3.0 | 0.00 | 0.28 | 0.06 | 34 | 1014.1 |
| 20260507195319 | 64 | 123 | 1.0 | 5.0 | 0.00 | 0.28 | 0.06 | 33 | 1014.1 |
| 20260507194344 | 64 | 105 | 3.0 | 7.0 | 0.00 | 0.28 | 0.06 | 32 | 1014.1 |
| 20260507193343 | 64 | 94 | 3.0 | 7.0 | 0.00 | 0.28 | 0.06 | 33 | 1014.0 |
| 20260507192335 | 65 | 107 | 4.0 | 8.0 | 0.00 | 0.28 | 0.06 | 33 | 1014.0 |
| 20260507191323 | 65 | 106 | 3.0 | 8.0 | 0.00 | 0.28 | 0.06 | 36 | 1013.9 |
| 20260507190412 | 65 | 88 | 5.0 | 10.0 | 0.00 | 0.28 | 0.06 | 38 | 1013.9 |
| 20260507185323 | 66 | 106 | 5.0 | 8.0 | 0.00 | 0.28 | 0.06 | 40 | 1013.9 |
| 20260507184319 | 66 | 98 | 5.0 | 9.0 | 0.00 | 0.28 | 0.06 | 42 | 1013.8 |
| 20260507183345 | 66 | 98 | 3.0 | 8.0 | 0.00 | 0.28 | 0.06 | 43 | 1013.7 |
| 20260507182337 | 66 | 93 | 3.0 | 7.0 | 0.00 | 0.28 | 0.06 | 41 | 1013.7 |
| 20260507181334 | 66 | 102 | 1.0 | 10.0 | 0.00 | 0.28 | 0.06 | 40 | 1013.7 |
| 20260507180341 | 66 | 103 | 6.0 | 10.0 | 0.00 | 0.28 | 0.06 | 40 | 1013.4 |
| 20260507175328 | 66 | 98 | 6.0 | 11.0 | 0.00 | 0.28 | 0.06 | 42 | 1013.3 |
| 20260507174335 | 66 | 103 | 4.0 | 13.0 | 0.00 | 0.28 | 0.06 | 44 | 1013.1 |
| 20260507173352 | 66 | 144 | 7.0 | 12.0 | 0.00 | 0.28 | 0.06 | 45 | 1013.1 |
| 20260507172321 | 67 | 111 | 5.0 | 12.0 | 0.00 | 0.28 | 0.06 | 44 | 1013.1 |
| 20260507171345 | 67 | 100 | 5.0 | 13.0 | 0.00 | 0.28 | 0.06 | 45 | 1012.8 |
| 20260507170343 | 67 | 53 | 7.0 | 14.0 | 0.00 | 0.28 | 0.06 | 45 | 1012.8 |
| 20260507165343 | 67 | 105 | 4.0 | 11.0 | 0.00 | 0.35 | 0.06 | 43 | 1012.8 |
| 20260507164337 | 67 | 103 | 5.0 | 13.0 | 0.00 | 0.35 | 0.06 | 43 | 1012.8 |
| 20260507163340 | 67 | 101 | 5.0 | 13.0 | 0.00 | 0.35 | 0.06 | 45 | 1012.8 |
| 20260507162334 | 67 | 65 | 6.0 | 11.0 | 0.00 | 0.35 | 0.06 | 47 | 1012.8 |
| 20260507161330 | 67 | 92 | 6.0 | 14.0 | 0.00 | 0.35 | 0.06 | 46 | 1012.7 |
| 20260507160333 | 67 | 94 | 8.0 | 14.0 | 0.00 | 0.35 | 0.06 | 43 | 1012.8 |
| 20260507155332 | 67 | 88 | 7.0 | 14.0 | 0.00 | 0.35 | 0.06 | 39 | 1012.8 |
| 20260507154335 | 68 | 110 | 5.0 | 10.0 | 0.00 | 0.35 | 0.06 | 38 | 1012.8 |
| 20260507153347 | 68 | 98 | 4.0 | 13.0 | 0.00 | 0.35 | 0.06 | 35 | 1012.8 |
| 20260507152326 | 68 | 61 | 7.0 | 12.0 | 0.00 | 0.35 | 0.06 | 37 | 1012.8 |
| 20260507151324 | 68 | 96 | 5.0 | 10.0 | 0.00 | 0.35 | 0.06 | 33 | 1012.7 |
| 20260507150354 | 67 | 89 | 7.0 | 17.0 | 0.00 | 0.35 | 0.06 | 33 | 1012.8 |
| 20260507145324 | 68 | 98 | 5.0 | 16.0 | 0.00 | 0.35 | 0.06 | 25 | 1012.8 |
| 20260507144335 | 67 | 103 | 7.0 | 14.0 | 0.00 | 0.35 | 0.06 | 19 | 1012.9 |
| 20260507143341 | 68 | 68 | 7.0 | 13.0 | 0.00 | 0.35 | 0.06 | 14 | 1012.9 |
| 20260507142327 | 67 | 53 | 7.0 | 14.0 | 0.00 | 0.35 | 0.06 | 11 | 1013.0 |
| 20260507141332 | 67 | 75 | 8.0 | 13.0 | 0.00 | 0.35 | 0.06 | 15 | 1012.9 |
| 20260507140352 | 68 | 108 | 8.0 | 14.0 | 0.00 | 0.35 | 0.06 | 15 | 1012.9 |
| 20260507135347 | 68 | 70 | 5.0 | 14.0 | 0.00 | 0.35 | 0.06 | 12 | 1013.1 |
| 20260507134355 | 68 | 105 | 6.0 | 13.0 | 0.00 | 0.35 | 0.06 | 12 | 1013.1 |
| 20260507133400 | 67 | 74 | 5.0 | 12.0 | 0.00 | 0.35 | 0.06 | 8 | 1013.1 |
| 20260507132329 | 67 | 91 | 8.0 | 13.0 | 0.00 | 0.35 | 0.06 | 23 | 1013.3 |
| 20260507131335 | 68 | 59 | 6.0 | 11.0 | 0.00 | 0.35 | 0.06 | 22 | 1013.3 |
| 20260507130337 | 68 | 75 | 7.0 | 10.0 | 0.00 | 0.35 | 0.06 | 26 | 1013.3 |
| 20260507125332 | 68 | 104 | 5.0 | 10.0 | 0.00 | 0.35 | 0.06 | 31 | 1013.2 |
| 20260507124344 | 68 | 53 | 5.0 | 12.0 | 0.00 | 0.35 | 0.06 | 37 | 1013.2 |
| 20260507123352 | 68 | 12 | 5.0 | 11.0 | 0.00 | 0.35 | 0.06 | 41 | 1013.1 |
| 20260507122326 | 68 | 60 | 7.0 | 14.0 | 0.00 | 0.35 | 0.06 | 46 | 1013.1 |
| 20260507121329 | 69 | 34 | 9.0 | 14.0 | 0.00 | 0.35 | 0.06 | 48 | 1013.0 |
| 20260507120335 | 69 | 110 | 6.0 | 11.0 | 0.00 | 0.35 | 0.06 | 50 | 1013.0 |
| 20260507115346 | 70 | 68 | 7.0 | 12.0 | 0.00 | 0.35 | 0.06 | 56 | 1013.1 |
| 20260507114336 | 75 | 65 | 5.0 | 8.0 | 0.00 | 0.35 | 0.06 | 46 | 1013.1 |
| 20260507113347 | 74 | 225 | 3.0 | 9.0 | 0.00 | 0.35 | 0.06 | 44 | 1013.1 |
| 20260507112344 | 73 | 224 | 2.0 | 7.0 | 0.00 | 0.35 | 0.06 | 48 | 1013.1 |
| 20260507111334 | 73 | 213 | 5.0 | 11.0 | 0.00 | 0.35 | 0.06 | 51 | 1013.2 |
| 20260507110343 | 73 | 229 | 5.0 | 11.0 | 0.00 | 0.35 | 0.06 | 52 | 1013.3 |
| 20260507105325 | 72 | 231 | 7.0 | 15.0 | 0.00 | 0.35 | 0.06 | 54 | 1013.3 |
| 20260507104331 | 72 | 181 | 5.0 | 12.0 | 0.00 | 0.35 | 0.06 | 54 | 1013.4 |
| 20260507103347 | 72 | 198 | 6.0 | 14.0 | 0.00 | 0.35 | 0.06 | 55 | 1013.4 |
| 20260507102330 | 72 | 170 | 6.0 | 13.0 | 0.00 | 0.35 | 0.06 | 57 | 1013.5 |
| 20260507101323 | 71 | 304 | 2.0 | 11.0 | 0.00 | 0.35 | 0.06 | 56 | 1013.4 |
| 20260507100347 | 71 | 178 | 4.0 | 14.0 | 0.00 | 0.35 | 0.06 | 56 | 1013.6 |
| 20260507095348 | 71 | 238 | 7.0 | 12.0 | 0.00 | 0.35 | 0.06 | 58 | 1013.6 |
| 20260507094336 | 69 | 233 | 7.0 | 14.0 | 0.00 | 0.35 | 0.06 | 59 | 1013.7 |
| 20260507093348 | 69 | 195 | 9.0 | 16.0 | 0.04 | 0.35 | 0.06 | 60 | 1013.8 |
| 20260507092348 | 68 | 232 | 3.0 | 7.0 | 0.08 | 0.35 | 0.06 | 59 | 1013.8 |
| 20260507091320 | 67 | 265 | 3.0 | 5.0 | 0.08 | 0.35 | 0.06 | 52 | 1013.9 |
| 20260507090350 | 66 | 262 | 3.0 | 5.0 | 0.08 | 0.35 | 0.06 | 49 | 1013.8 |
| 20260507085321 | 67 | 240 | 3.0 | 6.0 | 0.08 | 0.35 | 0.06 | 45 | 1014.1 |
| 20260507084333 | 67 | 242 | 3.0 | 8.0 | 0.08 | 0.35 | 0.06 | 47 | 1013.8 |
| 20260507083353 | 67 | 300 | 2.0 | 9.0 | 0.04 | 0.31 | 0.05 | 49 | 1013.8 |
| 20260507082324 | 68 | 328 | 4.0 | 9.0 | 0.00 | 0.28 | 0.04 | 56 | 1013.6 |
| 20260507081319 | 69 | 253 | 7.0 | 12.0 | 0.00 | 0.28 | 0.04 | 58 | 1013.5 |
| 20260507080410 | 69 | 197 | 2.0 | 6.0 | 0.00 | 0.28 | 0.04 | 50 | 1013.4 |
| 20260507075329 | 68 | 112 | 3.0 | 6.0 | 0.00 | 0.31 | 0.04 | 47 | 1013.5 |
| 20260507074359 | 68 | 88 | 0.0 | 7.0 | 0.00 | 0.31 | 0.04 | 46 | 1013.6 |
| 20260507073349 | 68 | 215 | 3.0 | 6.0 | 0.00 | 0.31 | 0.04 | 49 | 1013.5 |
| 20260507072350 | 67 | 108 | 2.0 | 6.0 | 0.00 | 0.31 | 0.04 | 42 | 1013.5 |
| 20260507071347 | 67 | 221 | 2.0 | 5.0 | 0.00 | 0.31 | 0.04 | 32 | 1013.5 |
| 20260507070354 | 66 | 210 | 1.0 | 6.0 | 0.00 | 0.31 | 0.04 | 10 | 1013.5 |
| 20260507064401 | 64 | 236 | 2.0 | 5.0 | 0.00 | 0.55 | 0.04 | 1 | 1013.3 |
| 20260507063354 | 63 | 221 | 1.0 | 4.0 | 0.00 | 0.55 | 0.04 | 1 | 1013.2 |
| 20260507062334 | 63 | 268 | 1.0 | 5.0 | 0.00 | 0.55 | 0.04 | 1 | 1013.2 |
| 20260507061319 | 63 | 234 | 1.0 | 4.0 | 0.00 | 0.55 | 0.04 | 1 | 1013.2 |
| 20260507060353 | 62 | 257 | 1.0 | 2.0 | 0.00 | 0.55 | 0.04 | 1 | 1013.2 |
| 20260507055348 | 61 | 205 | 0.0 | 0.0 | 0.00 | 0.55 | 0.04 | 1 | 1013.1 |
| 20260507054320 | 61 | 205 | 0.0 | 0.0 | 0.00 | 0.55 | 0.04 | 1 | 1013.2 |
| 20260507053336 | 61 | 205 | 0.0 | 1.0 | 0.00 | 0.55 | 0.04 | 1 | 1013.1 |
| 20260507052342 | 61 | 205 | 0.0 | 2.0 | 0.00 | 0.55 | 0.04 | 1 | 1013.0 |
| 20260507051348 | 61 | 205 | 1.0 | 2.0 | 0.00 | 0.55 | 0.04 | 1 | 1013.0 |
| 20260507050333 | 61 | 195 | 1.0 | 3.0 | 0.00 | 0.55 | 0.04 | 1 | 1012.9 |
| 20260507045350 | 0 | 0.0 | 0.0 | 0.00 | 0.55 | 0.04 | 1012.8 | ||
| 20260507044346 | 0 | 0.0 | 0.0 | 0.00 | 0.55 | 0.04 | 1012.7 | ||
| 20260507042339 | 0 | 0.0 | 0.0 | 0.00 | 0.55 | 0.04 | 1012.3 | ||
| 20260507041403 | 0 | 0.0 | 0.0 | 0.04 | 0.55 | 0.04 | 1012.5 | ||
| 20260507040333 | 0 | 0.0 | 0.0 | 0.04 | 0.55 | 0.04 | 1012.4 | ||
| 20260507035334 | 0 | 0.0 | 0.0 | 0.08 | 0.55 | 0.04 | 1012.2 | ||
| 20260507033336 | 0 | 0.0 | 0.0 | 0.12 | 0.55 | 0.04 | 1012.1 | ||
| 20260507031351 | 62 | 144 | 0.0 | 0.0 | 0.12 | 0.51 | 0.03 | 6 | 1012.2 |
| 20260507030358 | 62 | 144 | 0.0 | 2.0 | 0.16 | 0.51 | 0.03 | 12 | 1012.2 |
| 20260507025330 | 63 | 120 | 1.0 | 2.0 | 0.12 | 0.47 | 0.02 | 18 | 1012.2 |
| 20260507024323 | 63 | 153 | 0.0 | 3.0 | 0.08 | 0.43 | 0.02 | 23 | 1012.1 |
| 20260507023339 | 63 | 239 | 0.0 | 4.0 | 0.08 | 0.43 | 0.02 | 27 | 1012.0 |
| 20260507022342 | 63 | 257 | 2.0 | 5.0 | 0.04 | 0.39 | 0.01 | 29 | 1011.7 |
| 20260507021331 | 64 | 290 | 2.0 | 5.0 | 0.04 | 0.39 | 0.01 | 31 | 1011.6 |
| 20260507020343 | 64 | 231 | 0.0 | 0.0 | 0.00 | 0.35 | 0.00 | 32 | 1011.7 |
| 20260507015342 | 64 | 242 | 0.0 | 2.0 | 0.00 | 0.35 | 0.00 | 33 | 1011.8 |
| 20260507014334 | 64 | 238 | 2.0 | 4.0 | 0.00 | 0.35 | 0.00 | 33 | 1011.8 |
| 20260507013342 | 64 | 234 | 2.0 | 4.0 | 0.00 | 0.35 | 0.00 | 34 | 1011.8 |
| 20260507012345 | 64 | 232 | 0.0 | 0.0 | 0.00 | 0.35 | 0.00 | 36 | 1011.7 |
| 20260507011318 | 64 | 232 | 0.0 | 2.0 | 0.00 | 0.35 | 0.00 | 38 | 1011.7 |
| 20260507010354 | 64 | 232 | 0.0 | 3.0 | 0.00 | 0.35 | 0.00 | 38 | 1011.6 |
| 20260507004343 | 64 | 146 | 1.0 | 2.0 | 0.00 | 0.35 | 0.00 | 41 | 1011.7 |
| 20260507003346 | 64 | 129 | 0.0 | 1.0 | 0.00 | 0.35 | 0.00 | 44 | 1011.7 |